INTELSAT 37E (IS-37E) (42950 NORAD) Tracking and Keplerian Element Data

This shows tracking and keplerian element data for the satellite.

Feedback or suggestion? Click here.




ElementValue
Catalog42950
NameINTELSAT 37E (IS-37E)
Epoch Orbit457
Epoch Day349.82105797
Epoch Year2018
RAAN16.3782
Inclination0.0116
Eccentricity0.0002714
Argument of Perigee241.6059
Mean Anonmoly104.0352
Mean Motion1.00271965
Decay Rate-1.27E-06
L11 42950U 17059A 18349.82105797 -.00000127 00000-0 00000+0 0 9996
L22 42950 0.0116 16.3782 0002714 241.6059 104.0352 1.00271965 4570

Live tracking and technical data element details for INTELSAT 37E (IS-37E) (NORAD 42950). INTELSAT 37E (IS-37E) can be tracked NOW for your location showing map with azimuth and elevation plus other details from your city location.

Track the satellite on the map from your city or location and see movement details for azimuth, elevation, latitude, longitude, range, height, and movement on the map or in text.







IsCatalogInMostPopularTable: catalog: 42950, numindb: 292
Update: records affected: 1



GetName: 42950 INTELSAT 37E (IS-37E)

Hit Count: updated at: Sun, 16 Dec 2018 10:34:32 GMT